Weather in Zagornaya Selitba

Russia / Amur Oblast     51°08′21″N   127°14′57″E
temp.,
°C
wind,
m/s
gust,
m/s
humid.,
%
clouds,
%
prec.,
mm/h
press.,
hPa
HPBL,
m
14 april, wed
wed1400:00−6nw49515 0.0 1008448
03:00−6nw410625 0.0 1007495
06:00−7nw49655 0.0 1007490
09:00−4nnw575077 0.0 10071214
12:00−1nnw5630100 0.0 10062182
15:00+1nnw4623100 0.0 10062416
18:00+1nnw37255 0.0 10062183
21:00−3n23375 0.0 100837
15 april, thu
thu1500:00−4w11425 0.0 100910
03:00−5wsw22446 0.0 100925
06:00−5sw22430 0.0 100937
09:00+1w243193 0.0 1009654
12:00+5wnw342756 0.0 10092036
15:00+5n3226100 0.0 10081787
18:00+5ne2230100 0.0 1009491
21:00+2e2537100 0.0 101199
16 april, fri
fri1600:00+2ene4937100 0.0 1010330
03:000ene51041100 0.0 1010340
06:000ne51047100 0.0 1009385
09:00+1ne61142100 0.6 10091122
12:00+2ne71150100 0.3 10101225
15:00+3ne61048100 0.6 10101258
18:00+3ne6104581 0.0 10101245
21:00+2nne51147100 0.0 1011613
17 april, sat
sat1700:000n51263100 0.0 1011450
03:000n5116789 0.0 1011454
06:00−2nnw4117288 0.0 1012342
09:00+3n47445 0.0 1012664
12:00+8n45244 0.0 10111291
15:00+10n45190 0.0 10081741
18:00+10nnw22160 0.0 10101634
21:00+4wnw11280 0.0 101210
18 april, sun
sun1800:00+3sw22310 0.0 101211
03:00+1sw22390 0.0 101129
06:00+1ssw22405 0.0 101133
09:00+8s35298 0.0 1010379
12:00+14s452613 0.0 10081103
15:00+15s44255 0.0 10071401
18:00+15sse44330 0.0 10071154
21:00+6se37835 0.0 1008175